When you browse on this site, cookies collect data to enhance your experience and personalize the content and advertising you see.
Visit our Privacy Policy to learn more. By continuing to use the site, you agree to this use of cookies and data.
  • In Österreich
  • Länderverzeichnis
  • Für 7 Tage
  • Wassertemperatur
  • Wetterkarte
  • News
  • Widgets
  • user-avatar
    Anmelden

    Stündliche Wetter Limanowa

    Heute, 20 August, Dienstag

    Zeit Temperatur Niederschläge Wind Luftdruck Luftfeuchtigkeit
    00:00 +17°C° 0.1 mm 0 m/S 726 mmHg 92%
    01:00 +17°C° 0.1 mm 0 m/S 726 mmHg 94%
    02:00 +17°C° 0.3 mm 0 m/S 726 mmHg 95%
    03:00 +16°C° 0.3 mm 0 m/S 726 mmHg 95%
    04:00 +16°C° 0.3 mm 0 m/S 726 mmHg 96%
    05:00 +17°C° 0.2 mm 0 m/S 726 mmHg 95%
    06:00 +18°C° 0.2 mm 0 m/S 726 mmHg 94%
    07:00 +21°C° 0.2 mm 1 m/S 727 mmHg 92%
    08:00 +22°C° 0.1 mm 1 m/S 727 mmHg 88%
    09:00 +23°C° 0.1 mm 2 m/S 727 mmHg 83%
    10:00 +24°C° 0.1 mm 2 m/S 727 mmHg 79%
    11:00 +25°C° 0.6 mm 2 m/S 727 mmHg 80%
    12:00 +25°C° 0.6 mm 2 m/S 727 mmHg 80%
    13:00 +25°C° 0.6 mm 2 m/S 727 mmHg 81%
    14:00 +25°C° 1.2 mm 2 m/S 726 mmHg 80%
    15:00 +25°C° 1.2 mm 2 m/S 726 mmHg 79%
    16:00 +26°C° 1.2 mm 2 m/S 726 mmHg 79%
    17:00 +24°C° 0.2 mm 2 m/S 726 mmHg 82%
    18:00 +23°C° 0.2 mm 2 m/S 726 mmHg 85%
    19:00 +22°C° 0.2 mm 1 m/S 725 mmHg 88%
    20:00 +21°C° 0 mm 1 m/S 725 mmHg 88%
    21:00 +21°C° 0 mm 1 m/S 725 mmHg 89%
    22:00 +19°C° 0 mm 2 m/S 725 mmHg 89%
    23:00 +20°C° 0 mm 1 m/S 725 mmHg 89%

    Morgen, 21 August, Mittwoch

    Zeit Temperatur Niederschläge Wind Luftdruck Luftfeuchtigkeit
    00:00 +20°C° 0 mm 1 m/S 725 mmHg 89%
    01:00 +20°C° 0 mm 1 m/S 725 mmHg 89%
    02:00 +20°C° 0 mm 1 m/S 725 mmHg 90%
    03:00 +19°C° 0 mm 1 m/S 725 mmHg 91%
    04:00 +19°C° 0 mm 1 m/S 725 mmHg 92%
    05:00 +20°C° 0 mm 1 m/S 725 mmHg 91%
    06:00 +21°C° 0 mm 1 m/S 726 mmHg 90%
    07:00 +22°C° 0 mm 1 m/S 726 mmHg 89%
    08:00 +21°C° 0 mm 2 m/S 726 mmHg 87%
    09:00 +21°C° 0 mm 2 m/S 727 mmHg 85%
    10:00 +22°C° 0 mm 3 m/S 727 mmHg 83%
    11:00 +21°C° 0.1 mm 3 m/S 728 mmHg 84%
    12:00 +20°C° 0.1 mm 3 m/S 728 mmHg 85%
    13:00 +19°C° 0.1 mm 3 m/S 728 mmHg 86%
    14:00 +19°C° 0 mm 3 m/S 728 mmHg 86%
    15:00 +18°C° 0 mm 3 m/S 728 mmHg 85%
    16:00 +18°C° 0 mm 3 m/S 728 mmHg 85%
    17:00 +17°C° 0 mm 3 m/S 729 mmHg 86%
    18:00 +17°C° 0 mm 2 m/S 729 mmHg 86%
    19:00 +16°C° 0 mm 1 m/S 729 mmHg 87%
    20:00 +16°C° 0 mm 1 m/S 729 mmHg 88%
    21:00 +15°C° 0 mm 1 m/S 730 mmHg 89%
    22:00 +15°C° 0 mm 1 m/S 730 mmHg 90%
    23:00 +14°C° 0 mm 1 m/S 730 mmHg 91%

    übermorgen, 22 August, Donnerstag

    Zeit Temperatur Niederschläge Wind Luftdruck Luftfeuchtigkeit
    00:00 +14°C° 0 mm 1 m/S 730 mmHg 92%
    01:00 +13°C° 0 mm 1 m/S 729 mmHg 94%
    02:00 +13°C° 0 mm 1 m/S 729 mmHg 95%
    03:00 +12°C° 0 mm 1 m/S 729 mmHg 96%
    04:00 +12°C° 0 mm 1 m/S 729 mmHg 97%
    05:00 +12°C° 0 mm 1 m/S 729 mmHg 94%
    06:00 +13°C° 0 mm 1 m/S 729 mmHg 91%
    07:00 +14°C° 0 mm 1 m/S 730 mmHg 89%
    08:00 +15°C° 0 mm 1 m/S 730 mmHg 85%
    09:00 +16°C° 0 mm 2 m/S 730 mmHg 82%
    10:00 +17°C° 0 mm 2 m/S 730 mmHg 79%
    11:00 +17°C° 0 mm 2 m/S 730 mmHg 79%
    12:00 +17°C° 0 mm 2 m/S 730 mmHg 78%
    13:00 +18°C° 0 mm 2 m/S 729 mmHg 78%
    14:00 +18°C° 0.1 mm 2 m/S 729 mmHg 79%
    15:00 +18°C° 0.1 mm 2 m/S 729 mmHg 80%
    16:00 +18°C° 0.1 mm 2 m/S 729 mmHg 81%
    17:00 +17°C° 0 mm 2 m/S 729 mmHg 85%
    18:00 +16°C° 0 mm 2 m/S 729 mmHg 88%
    19:00 +15°C° 0 mm 1 m/S 729 mmHg 92%
    20:00 +15°C° 0 mm 1 m/S 729 mmHg 93%
    21:00 +14°C° 0 mm 1 m/S 729 mmHg 93%
    22:00 +14°C° 0 mm 1 m/S 729 mmHg 94%
    23:00 +14°C° 0 mm 1 m/S 729 mmHg 95%

    23 August, Freitag

    Zeit Temperatur Niederschläge Wind Luftdruck Luftfeuchtigkeit
    00:00 +13°C° 0 mm 1 m/S 729 mmHg 95%
    01:00 +13°C° 0 mm 1 m/S 729 mmHg 95%
    02:00 +13°C° 0 mm 1 m/S 729 mmHg 95%
    03:00 +13°C° 0 mm 1 m/S 729 mmHg 95%
    04:00 +13°C° 0 mm 1 m/S 729 mmHg 96%
    05:00 +14°C° 0 mm 1 m/S 729 mmHg 94%
    06:00 +15°C° 0 mm 1 m/S 729 mmHg 92%
    07:00 +16°C° 0 mm 1 m/S 729 mmHg 90%
    08:00 +17°C° 0 mm 2 m/S 730 mmHg 85%
    09:00 +19°C° 0 mm 2 m/S 730 mmHg 80%
    10:00 +20°C° 0 mm 3 m/S 730 mmHg 75%
    11:00 +20°C° 0 mm 3 m/S 730 mmHg 74%
    12:00 +21°C° 0 mm 3 m/S 730 mmHg 73%
    13:00 +21°C° 0 mm 3 m/S 730 mmHg 72%
    14:00 +21°C° 0 mm 3 m/S 730 mmHg 73%
    15:00 +21°C° 0 mm 3 m/S 729 mmHg 73%
    16:00 +21°C° 0 mm 3 m/S 729 mmHg 74%
    17:00 +20°C° 0 mm 2 m/S 729 mmHg 79%
    18:00 +19°C° 0 mm 2 m/S 729 mmHg 84%
    19:00 +18°C° 0 mm 2 m/S 729 mmHg 88%
    20:00 +18°C° 0 mm 1 m/S 729 mmHg 90%
    21:00 +16°C° 0 mm 1 m/S 729 mmHg 92%
    22:00 +16°C° 0 mm 1 m/S 729 mmHg 95%
    23:00 +15°C° 0 mm 1 m/S 729 mmHg 95%

    24 August, Samstag

    Zeit Temperatur Niederschläge Wind Luftdruck Luftfeuchtigkeit
    00:00 +15°C° 0 mm 1 m/S 729 mmHg 95%
    01:00 +14°C° 0 mm 1 m/S 728 mmHg 95%
    02:00 +14°C° 0 mm 1 m/S 728 mmHg 94%
    03:00 +14°C° 0 mm 1 m/S 728 mmHg 94%
    04:00 +14°C° 0 mm 1 m/S 728 mmHg 94%
    05:00 +14°C° 0 mm 0 m/S 728 mmHg 91%
    06:00 +15°C° 0 mm 0 m/S 728 mmHg 87%
    07:00 +17°C° 0 mm 0 m/S 728 mmHg 83%
    08:00 +21°C° 0 mm 1 m/S 728 mmHg 76%
    09:00 +23°C° 0 mm 1 m/S 728 mmHg 69%
    10:00 +26°C° 0 mm 1 m/S 729 mmHg 62%
    11:00 +27°C° 0 mm 1 m/S 728 mmHg 60%
    12:00 +27°C° 0 mm 1 m/S 728 mmHg 58%
    13:00 +28°C° 0 mm 1 m/S 728 mmHg 56%
    14:00 +28°C° 0.2 mm 1 m/S 728 mmHg 61%
    15:00 +27°C° 0.2 mm 1 m/S 727 mmHg 66%
    16:00 +27°C° 0.2 mm 1 m/S 727 mmHg 71%
    17:00 +25°C° 0.2 mm 1 m/S 727 mmHg 78%
    18:00 +23°C° 0.2 mm 1 m/S 726 mmHg 84%
    19:00 +22°C° 0.2 mm 1 m/S 726 mmHg 91%
    20:00 +21°C° 0.1 mm 1 m/S 726 mmHg 91%
    21:00 +21°C° 0.1 mm 1 m/S 726 mmHg 91%
    22:00 +20°C° 0.1 mm 1 m/S 726 mmHg 91%
    23:00 +20°C° 0 mm 1 m/S 726 mmHg 90%

    25 August, Sonntag

    Zeit Temperatur Niederschläge Wind Luftdruck Luftfeuchtigkeit
    00:00 +20°C° 0 mm 1 m/S 726 mmHg 90%
    01:00 +19°C° 0 mm 1 m/S 726 mmHg 89%
    02:00 +19°C° 0 mm 1 m/S 725 mmHg 88%
    03:00 +19°C° 0 mm 1 m/S 725 mmHg 88%
    04:00 +19°C° 0 mm 1 m/S 725 mmHg 87%
    05:00 +20°C° 0 mm 1 m/S 725 mmHg 84%
    06:00 +21°C° 0 mm 1 m/S 725 mmHg 81%
    07:00 +22°C° 0 mm 1 m/S 726 mmHg 79%
    08:00 +25°C° 0 mm 1 m/S 726 mmHg 70%
    09:00 +27°C° 0 mm 1 m/S 726 mmHg 61%
    10:00 +27°C° 0 mm 0 m/S 726 mmHg 53%
    11:00 +28°C° 0 mm 0 m/S 726 mmHg 50%
    12:00 +31°C° 0 mm 1 m/S 726 mmHg 47%
    13:00 +32°C° 0 mm 1 m/S 726 mmHg 44%
    14:00 +31°C° 0.1 mm 1 m/S 726 mmHg 49%
    15:00 +30°C° 0.1 mm 1 m/S 725 mmHg 54%
    16:00 +29°C° 0.1 mm 2 m/S 725 mmHg 59%
    17:00 +26°C° 1.6 mm 2 m/S 725 mmHg 69%
    18:00 +24°C° 1.6 mm 1 m/S 725 mmHg 78%
    19:00 +21°C° 1.6 mm 1 m/S 725 mmHg 88%
    20:00 +21°C° 0.4 mm 1 m/S 725 mmHg 88%
    21:00 +20°C° 0.4 mm 1 m/S 725 mmHg 87%
    22:00 +20°C° 0.4 mm 1 m/S 725 mmHg 87%
    23:00 +20°C° 0.2 mm 1 m/S 725 mmHg 87%
    Mehr zeigen